Kivalina, AK

11:33 PM AKST on February 25, 2017 (GMT -0900)
Kivalina

Weather History for PAVL - October, 2012

Change the Weather History Date:

Wednesday, October 17, 2012

  Actual Average (PAWN) Record (PAWN)
Temperature  
Mean Temperature 18 °F -  
Max Temperature 26 °F 23 °F 42 °F (2013)
Min Temperature 12 °F 11 °F -7 °F (2001)
Degree Days  
Heating Degree Days 46    
Moisture  
Dew Point 14 °F    
Average Humidity 85    
Maximum Humidity 88    
Minimum Humidity 78    
Precipitation  
Precipitation 0.00 in - - ()
Sea Level Pressure  
Sea Level Pressure 30.19 in    
Wind  
Wind Speed 14 mph (NNW)    
Max Wind Speed 18 mph    
Max Gust Speed -    
Visibility 9 miles    
Events      
Averages and records for this station are not official NWS values.
T = Trace of Precipitation, MM = Missing Value Source: NWS Daily Summary

Daily Weather History Graph

Daily Weather History Graph

Search for Another Location

Airport or City:

Trip Planner

Search our weather history database for the weather conditions in past years. The results will help you decide how hot, cold, wet, or windy it might be!

Date:

Astronomy

Oct. 17, 2012 Rise Set
Actual Time 10:11 AM AKDT 7:14 PM AKDT
Civil Twilight 9:13 AM AKDT 8:11 PM AKDT
Nautical Twilight 8:10 AM AKDT 9:14 PM AKDT
Astronomical Twilight 7:05 AM AKDT 10:19 PM AKDT
Moon 3:04 PM AKDT (10/17) 6:53 PM AKDT (10/17)
Length of Visible Light 10h 57m
Length of Day
9h 02m
Waxing Crescent, 8% of the Moon is Illuminated
Oct 17
Waxing Crescent
Oct 21
First Quarter
Oct 29
Full
Nov 6
Last Quarter
Nov 13
New

Hourly Weather History & Observations

Time (AKDT) Temp. Windchill Dew Point Humidity Pressure Visibility Wind Dir Wind Speed Gust Speed Precip Events Conditions
12:53 AM 16.0 °F 1.1 °F 12.0 °F 84% 30.07 in 9.0 mi NNW 15.0 mph - N/A   Clear
1:53 AM 18.0 °F 3.1 °F 12.9 °F 81% 30.08 in 9.0 mi North 16.1 mph - N/A   Clear
2:53 AM 14.0 °F 0.5 °F 10.0 °F 84% 30.10 in 9.0 mi North 11.5 mph - N/A   Clear
3:53 AM 12.9 °F -0.2 °F 10.0 °F 88% 30.12 in 9.0 mi NNW 10.4 mph - N/A   Clear
4:53 AM 14.0 °F -2.0 °F 10.9 °F 88% 30.12 in 9.0 mi NNW 16.1 mph - N/A   Clear
5:53 AM 15.1 °F 2.5 °F 12.0 °F 88% 30.14 in 9.0 mi North 10.4 mph - N/A   Clear
6:53 AM 15.1 °F 1.1 °F 12.0 °F 88% 30.14 in 9.0 mi North 12.7 mph - N/A   Clear
7:53 AM 15.1 °F 4.2 °F 12.0 °F 88% 30.16 in 9.0 mi North 8.1 mph - N/A   Clear
8:53 AM 14.0 °F 1.2 °F 10.9 °F 88% 30.17 in 9.0 mi North 10.4 mph - N/A   Clear
9:53 AM 12.9 °F 1.6 °F 10.0 °F 88% 30.18 in 9.0 mi North 8.1 mph - N/A   Clear
10:53 AM 15.1 °F 2.5 °F 12.0 °F 88% 30.19 in 8.0 mi NNW 10.4 mph - N/A   Clear
11:53 AM 15.1 °F 2.5 °F 12.0 °F 88% 30.19 in 8.0 mi NNW 10.4 mph - N/A   Clear
12:53 PM 18.0 °F 4.8 °F 14.0 °F 84% 30.20 in 8.0 mi North 12.7 mph - N/A   Clear
1:53 PM 23.0 °F 10.1 °F 18.0 °F 81% 30.20 in 8.0 mi North 15.0 mph - N/A   Clear
2:53 PM 23.0 °F 9.6 °F 19.0 °F 85% 30.20 in 8.0 mi North 16.1 mph - N/A   Scattered Clouds
3:53 PM 25.0 °F 11.3 °F 21.0 °F 85% 30.20 in 8.0 mi NNW 18.4 mph - N/A   Clear
4:53 PM 25.0 °F 11.7 °F 19.0 °F 78% 30.21 in 8.0 mi North 17.3 mph - N/A   Clear
5:53 PM 23.0 °F 8.7 °F 17.1 °F 78% 30.23 in 8.0 mi North 18.4 mph - N/A   Clear
6:53 PM 19.9 °F 6.2 °F 16.0 °F 85% 30.25 in 8.0 mi NNW 15.0 mph - N/A   Clear
7:53 PM 19.9 °F 6.2 °F 16.0 °F 85% 30.25 in 9.0 mi NNW 15.0 mph - N/A   Clear
8:53 PM 19.0 °F 5.6 °F 16.0 °F 88% 30.26 in 9.0 mi NNW 13.8 mph - N/A   Clear
9:53 PM 19.0 °F 5.0 °F 16.0 °F 88% 30.26 in 9.0 mi North 15.0 mph - N/A   Clear
10:53 PM 19.9 °F 6.2 °F 14.0 °F 78% 30.27 in 9.0 mi NNW 15.0 mph - N/A   Clear
11:53 PM 19.0 °F 5.0 °F 15.1 °F 85% 30.26 in 9.0 mi NNW 15.0 mph - N/A   Clear